Kezdőlap
METAR-TAF:

METAR-TAF

Repülőterek :

Monroe Municipal Airport

Monroe, Wisconsin, Amerikai Egyesült Államok

földrajzi szélesség: 42-36-54N, földrajzi hosszúság: 089-35-27W, magasság: 331 m

Jelenlegi meteorológiai megfigyelések

A jelentés 22 perccel ezelõtt készült, 10:55 UTC
Keleti szél 6 kt
Hőmérséklet 10°C
Páratartalom 66%
Légköri nyomás 1016 hPa
Látótávolság: 16.1 km
Derült ég

METAR: KEFT 171055Z AUTO 09006KT 10SM CLR 10/04 A3000 RMK AO2 T00960037

Idő: 06:17 (11:17 UTC)


TAF: hiányzik

Meteorológiai megfigyelések és előrejelzések több, mint 4000 repülőtéren (METAR és TAF jelentéseket).

A térképen piros és sárga pontok jelzik az elérhető meteorológiai állomásokat.

Mozgassa az egeret a pont fölött, hogy megjelenjen az állomás neve.

Azután kattintson az időjárási megfigyelések és előrejelzések megtekintéséhez.

A térkép megváltoztatása: kattintson a fekete keresztel jelölt zöld gombra ráközelítéshez, a vonallal jelölt zöld gombra távolításhoz, vagy a zöld nyilakra a szomszédos térképek eléréséhez.


METAR-TAF: